Location: Mentone
(34.5413°N, 85.5351°W)
Time: 07:08:01
(UTC-05:00)

ADEOS Rocket - Visible Passes

Search period start: 28 April 2017 00:00
Search period end: 08 May 2017 00:00
Orbit: 858 x 1307 km, 98.7° (Epoch: 26 April)

Date Brightness Start Highest point End Pass type
(mag) Time Alt. Az. Time Alt. Az. Time Alt. Az.
28 Apr 3.1 03:01:04 10° NNE 03:07:21 80° ESE 03:08:02 72° SSE visible
28 Apr 4.8 04:49:01 10° NNW 04:52:16 15° WNW 04:55:00 11° W visible
29 Apr 4.4 02:12:43 10° NE 02:18:22 33° E 02:18:33 33° ESE visible
29 Apr 3.8 03:58:06 10° N 04:03:46 37° WNW 04:05:31 32° W visible
30 Apr 5.5 01:26:41 10° ENE 01:29:05 12° E 01:29:05 12° E visible
30 Apr 3.1 03:08:37 10° NNE 03:14:59 88° WNW 03:16:02 67° SSW visible
30 Apr 5.0 04:57:14 10° NW 04:59:46 13° WNW 05:02:24 10° W visible
01 May 4.1 02:20:02 10° NNE 02:26:02 39° E 02:26:34 38° ESE visible
01 May 4.1 04:05:50 10° N 04:11:21 32° WNW 04:13:32 26° WSW visible
02 May 5.3 01:33:11 10° ENE 01:36:51 15° E 01:37:05 15° E visible
02 May 3.2 03:16:12 10° N 03:22:37 76° WNW 03:24:03 58° SW visible
02 May 5.1 05:05:55 10° NW 05:07:16 11° WNW 05:08:38 10° WNW visible
03 May 3.9 02:27:27 10° NNE 02:33:42 46° E 02:34:34 44° ESE visible
03 May 4.3 04:13:36 10° NNW 04:18:55 28° WNW 04:21:32 22° WSW visible
04 May 5.1 01:40:04 10° NE 01:44:34 19° E 01:45:06 19° E visible
04 May 3.3 03:23:48 10° N 03:30:15 66° WNW 03:32:03 49° SW visible
05 May 3.7 02:34:54 10° NNE 02:41:22 54° E 02:42:35 49° SE visible
05 May 4.5 04:21:24 10° NNW 04:26:30 24° WNW 04:29:32 18° W visible
06 May 4.9 01:47:09 10° NE 01:52:17 22° E 01:53:06 22° ESE visible
06 May 3.5 03:31:26 10° N 03:37:53 57° WNW 03:40:04 42° SW visible
07 May 3.6 02:42:23 10° NNE 02:49:03 64° ESE 02:50:35 52° SSE visible
07 May 4.6 04:29:16 10° NNW 04:34:03 21° WNW 04:37:32 15° W visible
